EN

Hourly Weather Lufkin

Today, 1 December, Tuesday

Time Temperature Precipitation Wind Pressure Humidity
00:00 +2°C° 0 mm 1 mps 761 mmHg 64%
01:00 +2°C° 0 mm 1 mps 761 mmHg 65%
02:00 +1°C° 0 mm 1 mps 760 mmHg 65%
03:00 0°C° 0 mm 0 mps 760 mmHg 65%
04:00 +1°C° 0 mm 1 mps 760 mmHg 65%
05:00 +1°C° 0 mm 1 mps 760 mmHg 64%
06:00 +1°C° 0 mm 1 mps 759 mmHg 63%
07:00 +3°C° 0 mm 1 mps 760 mmHg 58%
08:00 +3°C° 0 mm 2 mps 760 mmHg 52%
09:00 +5°C° 0 mm 2 mps 760 mmHg 47%
10:00 +7°C° 0 mm 2 mps 760 mmHg 42%
11:00 +10°C° 0 mm 3 mps 759 mmHg 38%
12:00 +12°C° 0 mm 3 mps 759 mmHg 33%
13:00 +12°C° 0 mm 3 mps 758 mmHg 34%
14:00 +13°C° 0 mm 3 mps 757 mmHg 35%
15:00 +13°C° 0 mm 3 mps 756 mmHg 36%
16:00 +11°C° 0 mm 3 mps 756 mmHg 47%
17:00 +9°C° 0 mm 2 mps 756 mmHg 59%
18:00 +7°C° 0 mm 2 mps 756 mmHg 70%
19:00 +7°C° 0 mm 2 mps 756 mmHg 74%
20:00 +7°C° 0 mm 3 mps 756 mmHg 77%
21:00 +7°C° 0 mm 3 mps 756 mmHg 80%
22:00 +8°C° 0 mm 3 mps 756 mmHg 78%
23:00 +8°C° 0 mm 3 mps 756 mmHg 75%

Tomorrow, 2 December, Wednesday

Time Temperature Precipitation Wind Pressure Humidity
00:00 +8°C° 0 mm 4 mps 756 mmHg 73%
01:00 +9°C° 0 mm 3 mps 756 mmHg 73%
02:00 +10°C° 0 mm 3 mps 756 mmHg 73%
03:00 +10°C° 0 mm 3 mps 756 mmHg 73%
04:00 +10°C° 0 mm 4 mps 756 mmHg 74%
05:00 +10°C° 0 mm 4 mps 756 mmHg 74%
06:00 +10°C° 0 mm 4 mps 756 mmHg 75%
07:00 +10°C° 0.5 mm 4 mps 756 mmHg 77%
08:00 +10°C° 0.5 mm 4 mps 756 mmHg 80%
09:00 +11°C° 0.5 mm 4 mps 756 mmHg 82%
10:00 +11°C° 1.3 mm 4 mps 756 mmHg 86%
11:00 +10°C° 1.3 mm 3 mps 756 mmHg 89%
12:00 +10°C° 1.3 mm 3 mps 756 mmHg 93%
13:00 +11°C° 1.6 mm 3 mps 755 mmHg 93%
14:00 +12°C° 1.6 mm 2 mps 755 mmHg 94%
15:00 +12°C° 1.6 mm 2 mps 755 mmHg 95%
16:00 +12°C° 0.6 mm 1 mps 755 mmHg 96%
17:00 +12°C° 0.6 mm 1 mps 755 mmHg 97%
18:00 +12°C° 0.6 mm 1 mps 755 mmHg 97%
19:00 +12°C° 0.4 mm 2 mps 755 mmHg 94%
20:00 +10°C° 0.4 mm 2 mps 756 mmHg 91%
21:00 +10°C° 0.4 mm 3 mps 756 mmHg 88%
22:00 +8°C° 0 mm 3 mps 756 mmHg 88%
23:00 +7°C° 0 mm 3 mps 756 mmHg 87%

Day after tomorrow, 3 December, Thursday

Time Temperature Precipitation Wind Pressure Humidity
00:00 +5°C° 0 mm 3 mps 756 mmHg 87%
01:00 +5°C° 0 mm 2 mps 756 mmHg 88%
02:00 +4°C° 0 mm 2 mps 756 mmHg 89%
03:00 +3°C° 0 mm 2 mps 756 mmHg 90%
04:00 +3°C° 0 mm 2 mps 756 mmHg 91%
05:00 +3°C° 0 mm 2 mps 756 mmHg 91%
06:00 +3°C° 0 mm 1 mps 757 mmHg 92%
07:00 +3°C° 0 mm 2 mps 757 mmHg 88%
08:00 +4°C° 0 mm 2 mps 757 mmHg 83%
09:00 +5°C° 0 mm 2 mps 758 mmHg 78%
10:00 +7°C° 0 mm 2 mps 758 mmHg 72%
11:00 +9°C° 0 mm 3 mps 757 mmHg 66%
12:00 +10°C° 0 mm 3 mps 757 mmHg 60%
13:00 +11°C° 0 mm 3 mps 757 mmHg 59%
14:00 +11°C° 0 mm 3 mps 756 mmHg 59%
15:00 +12°C° 0 mm 2 mps 756 mmHg 59%
16:00 +10°C° 0 mm 2 mps 756 mmHg 66%
17:00 +9°C° 0 mm 2 mps 756 mmHg 73%
18:00 +7°C° 0 mm 2 mps 756 mmHg 80%
19:00 +7°C° 0 mm 2 mps 756 mmHg 82%
20:00 +7°C° 0 mm 1 mps 756 mmHg 84%
21:00 +6°C° 0 mm 1 mps 757 mmHg 85%
22:00 +5°C° 0 mm 2 mps 757 mmHg 86%
23:00 +5°C° 0 mm 2 mps 757 mmHg 86%

4 December, Friday

Time Temperature Precipitation Wind Pressure Humidity
00:00 +5°C° 0 mm 2 mps 757 mmHg 87%
01:00 +4°C° 0 mm 2 mps 757 mmHg 89%
02:00 +4°C° 0 mm 2 mps 756 mmHg 91%
03:00 +3°C° 0 mm 2 mps 756 mmHg 94%
04:00 +3°C° 0 mm 2 mps 756 mmHg 94%
05:00 +3°C° 0 mm 2 mps 756 mmHg 95%
06:00 +2°C° 0 mm 2 mps 756 mmHg 96%
07:00 +4°C° 0 mm 2 mps 757 mmHg 89%
08:00 +5°C° 0 mm 2 mps 757 mmHg 81%
09:00 +5°C° 0 mm 3 mps 757 mmHg 74%
10:00 +7°C° 0 mm 3 mps 757 mmHg 68%
11:00 +9°C° 0 mm 3 mps 757 mmHg 63%
12:00 +10°C° 0 mm 3 mps 756 mmHg 57%
13:00 +10°C° 0 mm 3 mps 756 mmHg 57%
14:00 +10°C° 0 mm 3 mps 755 mmHg 58%
15:00 +9°C° 0 mm 3 mps 755 mmHg 58%
16:00 +9°C° 0 mm 3 mps 755 mmHg 62%
17:00 +8°C° 0 mm 2 mps 755 mmHg 65%
18:00 +7°C° 0 mm 2 mps 756 mmHg 68%
19:00 +7°C° 0 mm 1 mps 756 mmHg 72%
20:00 +6°C° 0 mm 1 mps 756 mmHg 76%
21:00 +5°C° 0 mm 1 mps 757 mmHg 80%
22:00 +5°C° 0 mm 1 mps 756 mmHg 81%
23:00 +4°C° 0 mm 1 mps 756 mmHg 81%

5 December, Saturday

Time Temperature Precipitation Wind Pressure Humidity
00:00 +4°C° 0 mm 1 mps 756 mmHg 82%
01:00 +4°C° 0 mm 1 mps 756 mmHg 83%
02:00 +4°C° 0 mm 1 mps 756 mmHg 85%
03:00 +3°C° 0 mm 1 mps 756 mmHg 86%
04:00 +3°C° 0 mm 1 mps 756 mmHg 85%
05:00 +2°C° 0 mm 2 mps 756 mmHg 83%
06:00 +2°C° 0 mm 2 mps 756 mmHg 82%
07:00 +3°C° 0 mm 2 mps 757 mmHg 75%
08:00 +5°C° 0 mm 2 mps 757 mmHg 68%
09:00 +6°C° 0 mm 2 mps 758 mmHg 61%
10:00 +8°C° 0 mm 3 mps 758 mmHg 56%
11:00 +10°C° 0 mm 3 mps 757 mmHg 50%
12:00 +12°C° 0 mm 3 mps 757 mmHg 44%
13:00 +13°C° 0 mm 3 mps 757 mmHg 44%
14:00 +13°C° 0 mm 3 mps 756 mmHg 43%
15:00 +14°C° 0 mm 3 mps 756 mmHg 43%
16:00 +12°C° 0 mm 3 mps 756 mmHg 51%
17:00 +10°C° 0 mm 2 mps 756 mmHg 60%
18:00 +8°C° 0 mm 2 mps 756 mmHg 68%
19:00 +7°C° 0 mm 2 mps 756 mmHg 70%
20:00 +6°C° 0 mm 2 mps 757 mmHg 72%
21:00 +6°C° 0 mm 2 mps 757 mmHg 74%
22:00 +5°C° 0 mm 2 mps 757 mmHg 75%
23:00 +5°C° 0 mm 2 mps 757 mmHg 76%

6 December, Sunday

Time Temperature Precipitation Wind Pressure Humidity
00:00 +5°C° 0 mm 2 mps 757 mmHg 77%
01:00 +5°C° 0 mm 2 mps 756 mmHg 78%
02:00 +5°C° 0 mm 1 mps 756 mmHg 78%
03:00 +5°C° 0 mm 1 mps 756 mmHg 79%
04:00 +5°C° 0 mm 1 mps 756 mmHg 80%
05:00 +5°C° 0 mm 1 mps 756 mmHg 81%
06:00 +5°C° 0 mm 1 mps 756 mmHg 81%
07:00 +5°C° 0 mm 2 mps 756 mmHg 75%
08:00 +7°C° 0 mm 2 mps 756 mmHg 69%
09:00 +8°C° 0 mm 2 mps 757 mmHg 64%
10:00 +10°C° 0 mm 2 mps 756 mmHg 57%
11:00 +14°C° 0 mm 2 mps 756 mmHg 51%
12:00 +16°C° 0 mm 2 mps 756 mmHg 45%
13:00 +16°C° 0 mm 3 mps 755 mmHg 45%
14:00 +17°C° 0 mm 3 mps 755 mmHg 44%
15:00 +17°C° 0 mm 3 mps 754 mmHg 44%
16:00 +15°C° 0 mm 2 mps 755 mmHg 53%
17:00 +13°C° 0 mm 2 mps 755 mmHg 62%
18:00 +10°C° 0 mm 1 mps 755 mmHg 71%
19:00 +10°C° 0 mm 1 mps 755 mmHg 72%
20:00 +9°C° 0 mm 1 mps 756 mmHg 74%
21:00 +8°C° 0 mm 1 mps 756 mmHg 75%
22:00 +8°C° 0 mm 1 mps 756 mmHg 76%
23:00 +7°C° 0 mm 1 mps 756 mmHg 77%
Show more